Weather History for Edenton, NC

Change the Weather History Date:

Monday, July 1, 2013

  Actual Average Record
Temperature  
Mean Temperature 78 °F -  
Max Temperature 81 °F 87 °F 99 °F (1945)
Min Temperature 75 °F 69 °F 58 °F (1988)
Cooling Degree Days 13    
Growing Degree Days 28 (Base 50)    
Moisture  
Dew Point 76 °F    
Average Humidity 96    
Maximum Humidity 100    
Minimum Humidity 82    
Precipitation  
Precipitation 0.22 in - - ()
Sea Level Pressure  
Sea Level Pressure 29.98 in    
Wind  
Wind Speed 11 mph (South)    
Max Wind Speed 20 mph    
Max Gust Speed 23 mph    
Visibility 10 miles    
Events Rain    
Averages and records for this station are not official NWS values.
T = Trace of Precipitation, MM = Missing Value Source: NWS Daily Summary

Daily Weather History Graph

Daily Weather History Graph

Search for Another Location

Airport:

Trip Planner

Search our weather history database for the weather conditions in past years. The results will help you decide how hot, cold, wet, or windy it might be!

Date:

Astronomy

Jul. 01, 2013 Rise Set
Actual Time 5:53 AM EDT 8:27 PM EDT
Civil Twilight 5:23 AM EDT 8:57 PM EDT
Nautical Twilight 4:45 AM EDT 9:34 PM EDT
Astronomical Twilight 4:04 AM EDT 10:15 PM EDT
Moon 1:14 AM EDT (7/1) 2:46 PM EDT (7/1)
Length of Visible Light 15h 34m
Length of Day
14h 33m
Waning Crescent, 35% of the Moon is Illuminated
Jul 1
Waning Crescent
Jul 8
New
Jul 15
First Quarter
Jul 22
Full
Jul 29
Last Quarter

Hourly Weather History & Observations

Time (EDT) Temp. Heat Index Dew Point Humidity Pressure Visibility Wind Dir Wind Speed Gust Speed Precip Events Conditions
12:15 AM 77.2 °F - 75.6 °F 95% 29.92 in 10.0 mi South 10.4 mph 18.4 mph N/A   Clear
12:35 AM 77.2 °F - 75.9 °F 96% 29.92 in 10.0 mi South 11.5 mph - N/A   Scattered Clouds
12:55 AM 77.4 °F - 76.1 °F 96% 29.91 in 10.0 mi South 11.5 mph - N/A   Mostly Cloudy
1:15 AM 77.2 °F - 76.1 °F 96% 29.92 in 10.0 mi South 9.2 mph - N/A   Scattered Clouds
1:35 AM 77.4 °F - 76.1 °F 96% 29.92 in 10.0 mi South 9.2 mph - N/A   Scattered Clouds
1:55 AM 77.2 °F - 76.5 °F 98% 29.92 in 10.0 mi South 9.2 mph - N/A   Scattered Clouds
2:15 AM 77.2 °F - 76.6 °F 98% 29.91 in 10.0 mi South 9.2 mph - N/A   Clear
2:35 AM 77.4 °F - 77.0 °F 99% 29.91 in 10.0 mi South 9.2 mph - N/A   Clear
2:55 AM 77.2 °F - 76.8 °F 99% 29.90 in 10.0 mi SSE 6.9 mph - N/A   Clear
3:15 AM 77.2 °F - 77.0 °F 99% 29.89 in 10.0 mi South 6.9 mph - N/A   Clear
3:35 AM 77.4 °F - 77.2 °F 99% 29.90 in 10.0 mi South 8.1 mph - N/A   Scattered Clouds
3:55 AM 77.4 °F - 77.2 °F 99% 29.89 in 10.0 mi SSE 6.9 mph - N/A   Scattered Clouds
4:15 AM 77.2 °F - 77.2 °F 100% 29.90 in 10.0 mi SSE 8.1 mph - N/A   Clear
4:35 AM 77.4 °F - 77.4 °F 100% 29.90 in 10.0 mi South 6.9 mph - N/A   Scattered Clouds
4:55 AM 78.1 °F - 78.1 °F 100% 29.91 in 10.0 mi South 8.1 mph - N/A   Mostly Cloudy
5:15 AM 77.9 °F - 77.9 °F 100% 29.91 in 10.0 mi SSE 9.2 mph - N/A   Scattered Clouds
5:35 AM 78.3 °F - 78.3 °F 100% 29.92 in 10.0 mi South 6.9 mph - N/A   Scattered Clouds
5:55 AM 78.1 °F - 77.5 °F 98% 29.92 in 10.0 mi South 8.1 mph - N/A   Scattered Clouds
6:15 AM 77.5 °F - 76.1 °F 95% 29.92 in 2.0 mi South 13.8 mph 20.7 mph 0.18 in Rain Light Rain
6:35 AM 77.9 °F - 77.5 °F 99% 29.93 in 10.0 mi South 10.4 mph - 0.18 in   Scattered Clouds
6:55 AM 77.7 °F - 77.2 °F 98% 29.94 in 10.0 mi South 12.7 mph - 0.18 in   Mostly Cloudy
7:15 AM 77.4 °F - 75.7 °F 95% 29.95 in 10.0 mi South 10.4 mph 16.1 mph N/A   Overcast
7:35 AM 77.2 °F - 75.4 °F 94% 29.96 in 10.0 mi South 11.5 mph - N/A   Mostly Cloudy
7:55 AM 77.2 °F - 75.2 °F 94% 29.96 in 10.0 mi South 12.7 mph - N/A   Scattered Clouds
8:15 AM 77.7 °F - 75.4 °F 92% 29.96 in 10.0 mi South 13.8 mph - N/A   Mostly Cloudy
8:35 AM 78.4 °F - 76.5 °F 94% 29.96 in 10.0 mi South 12.7 mph - N/A   Mostly Cloudy
8:55 AM 79.9 °F - 76.6 °F 90% 29.97 in 10.0 mi SSW 15.0 mph 19.6 mph N/A   Mostly Cloudy
9:15 AM 80.6 °F 86.4 °F 75.6 °F 85% 29.97 in 10.0 mi South 17.3 mph 20.7 mph N/A   Mostly Cloudy
9:35 AM 79.7 °F - 74.8 °F 85% 29.97 in 10.0 mi South 13.8 mph 23.0 mph N/A   Mostly Cloudy
9:55 AM 81.3 °F 87.6 °F 75.4 °F 82% 29.97 in 10.0 mi South 13.8 mph 18.4 mph N/A   Scattered Clouds
10:15 AM 78.1 °F - 73.9 °F 87% 29.98 in 7.0 mi South 16.1 mph 19.6 mph N/A Rain Light Rain
10:35 AM 76.5 °F - 74.5 °F 94% 29.98 in 7.0 mi South 12.7 mph - 0.01 in Rain Light Rain
10:55 AM 76.5 °F - 74.5 °F 94% 29.99 in 10.0 mi South 12.7 mph 18.4 mph 0.02 in   Clear
11:15 AM 76.5 °F - 74.7 °F 94% 29.99 in 10.0 mi SSW 16.1 mph 23.0 mph N/A   Clear
11:35 AM 77.0 °F - 75.0 °F 94% 30.00 in 10.0 mi South 12.7 mph - N/A Rain Light Rain
11:55 AM 76.6 °F - 74.8 °F 94% 29.99 in 10.0 mi South 12.7 mph - N/A   Clear
12:15 PM 76.3 °F - 74.7 °F 95% 29.99 in 10.0 mi South 12.7 mph - N/A Rain Rain
12:35 PM 77.9 °F - 76.5 °F 95% 29.99 in 10.0 mi South 11.5 mph 17.3 mph N/A   Clear
12:55 PM 77.9 °F - 75.6 °F 92% 29.99 in 10.0 mi South 15.0 mph - N/A   Clear
1:15 PM 77.2 °F - 75.2 °F 94% 30.00 in 10.0 mi South 11.5 mph - N/A   Clear
1:35 PM 76.6 °F - 75.2 °F 95% 30.00 in 10.0 mi South 11.5 mph 17.3 mph 0.01 in Rain Light Rain
1:55 PM 78.4 °F - 76.5 °F 94% 30.00 in 10.0 mi South 15.0 mph 19.6 mph 0.01 in   Clear
2:15 PM 79.3 °F - 76.8 °F 92% 29.99 in 10.0 mi South 16.1 mph - N/A   Clear
2:35 PM 79.3 °F - 74.3 °F 84% 29.99 in 10.0 mi South 11.5 mph - N/A   Clear
2:55 PM 78.4 °F - 74.5 °F 88% 29.99 in 10.0 mi South 15.0 mph - N/A   Light Drizzle
3:15 PM 77.9 °F - 75.6 °F 92% 29.99 in 10.0 mi South 12.7 mph - N/A   Drizzle
3:35 PM 77.5 °F - 76.3 °F 96% 29.98 in 10.0 mi South 13.8 mph 18.4 mph N/A   Light Drizzle
3:55 PM 77.4 °F - 77.0 °F 99% 29.99 in 10.0 mi SSE 12.7 mph - N/A   Drizzle
4:15 PM 77.9 °F - 77.2 °F 98% 29.99 in 10.0 mi South 13.8 mph - 0.01 in   Scattered Clouds
4:35 PM 78.4 °F - 77.5 °F 97% 29.99 in 10.0 mi South 11.5 mph 17.3 mph 0.01 in   Scattered Clouds
4:55 PM 78.3 °F - 76.1 °F 93% 30.00 in 10.0 mi South 19.6 mph 23.0 mph 0.01 in   Mostly Cloudy
5:15 PM 77.5 °F - 75.4 °F 93% 30.00 in 10.0 mi South 12.7 mph 19.6 mph N/A   Mostly Cloudy
5:35 PM 77.2 °F - 75.4 °F 94% 30.00 in 10.0 mi South 13.8 mph - N/A   Drizzle
5:55 PM 76.8 °F - 75.7 °F 96% 30.00 in 10.0 mi South 13.8 mph 17.3 mph N/A   Light Drizzle
6:15 PM 76.6 °F - 76.1 °F 98% 29.99 in 10.0 mi South 13.8 mph - N/A   Drizzle
6:35 PM 76.6 °F - 76.1 °F 98% 30.00 in 10.0 mi South 11.5 mph 19.6 mph N/A   Light Drizzle
6:55 PM 76.6 °F - 76.3 °F 99% 30.00 in 10.0 mi South 12.7 mph 17.3 mph N/A   Mostly Cloudy
7:15 PM 76.6 °F - 76.3 °F 99% 30.01 in 10.0 mi South 11.5 mph - N/A   Mostly Cloudy
7:35 PM 76.6 °F - 76.5 °F 99% 30.02 in 10.0 mi South 11.5 mph - N/A   Scattered Clouds
7:55 PM 76.6 °F - 76.3 °F 99% 30.03 in 10.0 mi South 11.5 mph - N/A   Scattered Clouds
8:15 PM 76.5 °F - 76.1 °F 99% 30.03 in 10.0 mi South 10.4 mph - N/A   Mostly Cloudy
8:35 PM 75.9 °F - 75.4 °F 98% 30.03 in 10.0 mi South 12.7 mph - N/A   Scattered Clouds
8:55 PM 75.6 °F - 75.2 °F 99% 30.03 in 10.0 mi South 10.4 mph - N/A   Scattered Clouds
9:15 PM 75.6 °F - 75.2 °F 99% 30.04 in 10.0 mi SSW 8.1 mph - N/A   Light Drizzle
9:35 PM 75.2 °F - 75.2 °F 100% 30.04 in 10.0 mi South 8.1 mph - N/A   Scattered Clouds
9:55 PM 75.2 °F - 75.2 °F 100% 30.05 in 10.0 mi SSW 6.9 mph - N/A   Mostly Cloudy
10:15 PM 75.2 °F - 75.2 °F 100% 30.05 in 10.0 mi SSW 8.1 mph - N/A   Scattered Clouds
10:35 PM 75.6 °F - 75.2 °F 99% 30.06 in 10.0 mi SSW 10.4 mph - N/A   Mostly Cloudy
10:55 PM 75.7 °F - 75.2 °F 98% 30.06 in 10.0 mi SSW 11.5 mph - N/A   Scattered Clouds
11:15 PM 75.6 °F - 75.2 °F 99% 30.07 in 10.0 mi South 11.5 mph - N/A   Scattered Clouds
11:35 PM 75.6 °F - 75.2 °F 99% 30.07 in 10.0 mi South 10.4 mph 16.1 mph N/A   Clear
11:55 PM 75.6 °F - 75.2 °F 99% 30.06 in 10.0 mi South 10.4 mph - N/A   Clear